Meteo Giornale » Osservazioni meteo Argentina » Parana Aerodrome
ore: 23:00 - Osservazioni Meteo Parana Aerodrome
Lat. 31° 47' S Lon. 60° 29' W Alt. 74 metri s.l.m.
16 °C
Coperto
Temp. 24 Ore
12 °C
20 °C
Sud
14.8 Km/h
Dew point 14 °C
Umidità 87 %
Visibilità 10 Km
Il sole sorge alle ore 07:18
Il sole tramonta alle ore 18:45
| Data e Ora | Cielo e Fenomeni | T °C | DP °C | Um. % | Pres. hPa | Vis. km | Vento km/h | |
|---|---|---|---|---|---|---|---|---|
| Ieri h: 23:00 | Coperto | 16 | 14 | 87 | 1018 | 10 | S 14.8 | |
| Ieri h: 22:00 | Coperto | 16 | 14 | 87 | 1017 | 10 | S/SO 7.4 | |
| Ieri h: 21:00 | Coperto | 16 | 14 | 87 | 1016 | 10 | E/SE 14.8 | |
| Ieri h: 20:00 | Coperto | 17 | 14 | 82 | 1016 | 10 | E/SE 13 | |
| Ieri h: 19:00 | Coperto | 17 | 15 | 88 | 1014 | 10 | SE 11.1 | |
| Ieri h: 18:00 | Coperto | 18 | 15 | 82 | 1014 | 10 | S/SE 13 | |
| Ieri h: 17:00 | Coperto | 18 | 15 | 82 | 1013 | 10 | S/SE 18.5 | |
| Ieri h: 16:00 | Coperto | 19 | 15 | 77 | 1012 | 10 | S/SE 22.2 | |
| Ieri h: 15:00 | Coperto | 20 | 15 | 72 | 1012 | 10 | S/SE 24 | |
| Ieri h: 14:00 | Coperto | 20 | 15 | 72 | 1012 | 10 | S/SE 7.4 | |
| Ieri h: 13:00 | Molto Nuvoloso | 19 | 15 | 77 | 1013 | 10 | N 5.5 | |
| Ieri h: 12:00 | Molto Nuvoloso | 18 | 15 | 82 | 1013 | 10 | NE 13 | |
| Ieri h: 11:00 | Coperto | 16 | 14 | 87 | 1012 | 10 | NE 14.8 | |
| Ieri h: 10:00 | Coperto | 15 | 14 | 93 | 1012 | 10 | E 14.8 | |
| Ieri h: 09:40 | Coperto | 14 | 13 | 93 | 1012 | 10 | E 14.8 | |
| Ieri h: 09:00 | Foschia | 14 | 13 | 93 | 1011 | 2 | E 13 | |
| Ieri h: 08:00 | Nebbia | 13 | 13 | 100 | 1011 | 0.7 | E 13 | |
| Ieri h: 07:00 | Nebbia | 13 | 12 | 93 | 1011 | 0.2 | E 9.3 | |
| Ieri h: 06:16 | Nebbia | 12 | 11 | 93 | 1010 | 0.5 | E/SE 11.1 | |
| Ieri h: 06:00 | Molto Nuvoloso | 12 | 11 | 93 | 1010 | 8 | E/SE 7.4 | |
| Ieri h: 05:00 | Sereno | 12 | 11 | 93 | 1011 | 10 | N 5.5 | |
| Ieri h: 04:00 | Nuvoloso | 13 | 11 | 87 | 1012 | 10 | E/NE 7.4 | |
| Ieri h: 03:00 | Coperto | 13 | 12 | 93 | 1012 | 10 | N 5.5 | |
| Ieri h: 02:00 | Molto Nuvoloso | 13 | 11 | 87 | 1013 | 10 | N 3.7 | |
| Ieri h: 01:00 | Sereno | 13 | 11 | 87 | 1013 | 10 | NE 7.4 | |



